[[{"header":{"parameterUnit":"m.s-1","parameterCategory":1,"la1":30.2991,"la2":30.254,"lo1":-89.0895,"lo2":-89.0444,"dy":0.0017,"dx":0.0017,"nx":28,"ny":28,"refTime":"2023-08-24T03:00:00:Z","depth":0,"parameterNumber":2,"parameterNumberName":"U-component_of_WINDS"},"data":[0,0,0,0,0,0,0,0,0,0,0,0,0,0,0,0,0,0,0,0,0,0,0,0,0,0,0,0,0,0,0,0,0,0,0,0,0,0,0,0,0,0,0,0,0,0,0,0,0,0,0,0,0,0,0,0,0,0,-0.0072,-0.007,0,0.0113,0.0115,0.0117,0.0204,0.0204,0.0204,0.0204,0.0396,0.0401,0.0406,0,0,0,0,0,0,0,0,0,0,0,0,0,-0.0349,-0.0344,-0.0072,-0.007,-0.0067,0.0112,0.0115,0.0117,0.0204,0.0204,0.0204,0.0203,0.0394,0.0401,0.0407,0,0,0,0,0,0,0,0,0,0,0,0,0,-0.0203,-0.0343,-0.0073,-0.0003,0.0005,0.0112,0.0115,0.0118,0.0204,0.0204,0.0204,0.0203,0.0392,0.04,0.0408,0.046,0,0,0.0432,0.0435,0,0,0,0,0,0,0,0,-0.0211,-0.0193,-0.0015,-0.0007,0.0002,0.0135,0.0088,0.0233,0.0204,0.0129,0.0204,0.0203,0.031,0.0324,0.0359,0.0469,0.0477,0.0432,0.0437,0.0441,0.0443,0,0,0,0,0,0,0,-0.0221,-0.02,0.0001,-0.0013,-0.0002,0.002,0.004,0.0116,0.0218,0.0135,0.0142,0.0162,0.0314,0.0352,0.0365,0.048,0.0432,0.0439,0.0444,0.0447,0.0639,0.064,0,0,0,0,0,0,-0.0243,-0.0209,-0.0005,0.0007,-0.0107,0.0025,0.0048,0.0093,0.0217,0.0236,0.0162,0.0166,0.0338,0.0355,0.0372,0.044,0.0441,0.0448,0.0452,0.0639,0.0639,0.064,0,0,0,0,0,0,-0.0249,-0.0226,-0.0012,-0.0099,-0.0071,0.003,0.0079,0.0096,0.0134,0.0238,0.0257,0.0182,0.0339,0.0361,0.0437,0.0448,0.0451,0.0459,0.0638,0.0639,0.064,0.0577,0,0,0,0,0,0,-0.0258,-0.0229,-0.0208,-0.01,-0.0066,0.0049,0.008,0.01,0.0147,0.0153,0.0261,0.0279,0.034,0.0424,0.0444,0.0459,0.0465,0.0638,0.0639,0.0639,0.0578,0.0575,0.0572,0,0,0,0,0,-0.0268,-0.0232,-0.0207,-0.0183,-0.0038,0.005,0.0069,0.0138,0.0147,0.0169,0.0235,0.0275,0.0443,0.0431,0.0455,0.0471,0.0638,0.0639,0.0639,0.058,0.0576,0.0573,0,0,0,0,0,0,-0.0339,-0.0216,-0.0187,-0.0115,-0.0044,0.0064,0.0094,0.0132,0.0203,0.0206,0.0289,0.0313,0.0381,0.0434,0.0419,0.0527,0.0544,0.0549,0.0491,0.0488,0.0485,0.0471,0.0471,0,0,0,0,0,-0.0347,-0.0287,-0.0182,-0.0128,-0.0094,-0.0007,0.0034,0.0081,0.0158,0.0189,0.0262,0.0336,0.0405,0.0449,0.0519,0.0586,0.061,0.0609,0.0606,0.0603,0.0607,0.0645,0.0645,0.0643,0.0643,0.0643,0,0,-0.0361,-0.0287,-0.0253,-0.0141,-0.008,-0.0019,0.0018,0.0082,0.0128,0.02,0.0275,0.033,0.0419,0.0489,0.0524,0.0536,0.0612,0.0604,0.0601,0.0607,0.0645,0.0646,0.0646,0.0643,0.0643,0.0643,0,0,-0.0356,-0.0294,-0.0243,-0.0184,-0.0094,-0.0036,-0.0025,0.0078,0.0117,0.0193,0.0248,0.0304,0.0422,0.0482,0.0528,0.0551,0.0591,0.0572,0.0557,0.0593,0.0593,0.0593,0.0601,0.0603,0.0575,0.0575,0.0575,0,-0.0385,-0.0292,-0.0221,-0.0162,-0.0114,-0.0049,0.0003,0.0057,0.0166,0.0197,0.0208,0.0355,0.042,0.0505,0.051,0.0545,0.0561,0.0561,0.0587,0.0588,0.059,0.0598,0.0601,0.0572,0.0573,0.0573,0.0573,0,-0.0333,-0.0269,-0.0239,-0.0138,-0.0087,-0.0032,0.0047,0.009,0.0131,0.0187,0.0264,0.0343,0.0428,0.0452,0.0494,0.0543,0.0546,0.057,0.0589,0.0586,0.0595,0.0599,0.0568,0.0569,0.057,0.0571,0,0,-0.0365,-0.0228,-0.0218,-0.0172,-0.0069,-0.0018,0.0039,0.0121,0.0156,0.0228,0.0278,0.0375,0.0397,0.0449,0.0498,0.0529,0.0541,0.055,0.0553,0.0545,0.0598,0.0579,0.0582,0.0567,0.0568,0.0569,0.0591,0,-0.0346,-0.0241,-0.0177,-0.0097,-0.0038,0.0023,0.0073,0.0141,0.0195,0.0253,0.0312,0.0378,0.0403,0.0435,0.0468,0.0532,0.0553,0.0532,0.0615,0.0617,0.0591,0.0587,0.0568,0.0585,0.0595,0.0596,0.0596,0,-0.0309,-0.0241,-0.0156,-0.0062,-0.0035,0.0009,0.0088,0.0142,0.0221,0.0257,0.0313,0.0362,0.0425,0.0436,0.0524,0.0508,0.0545,0.0582,0.0584,0.0595,0.0607,0.0598,0.0593,0.0595,0.0603,0.0602,0.0602,0,-0.0343,-0.0229,-0.0164,-0.0127,-0.0015,0.0014,0.0062,0.014,0.0184,0.0254,0.0283,0.0359,0.0401,0.0459,0.0526,0.0529,0.0606,0.0624,0.0638,0.0636,0.0653,0.0651,0.0653,0.0676,0.0676,0.0676,0.0676,0,-0.0328,-0.0278,-0.0178,-0.0138,-0.0081,-0.0009,0.0045,0.0098,0.0166,0.0218,0.0276,0.0323,0.0409,0.0466,0.0519,0.0583,0.0602,0.0633,0.0646,0.0628,0.0624,0.0654,0.0655,0.0677,0.0677,0.0677,0.0677,0,-0.0354,-0.0285,-0.021,-0.0112,-0.0086,-0.0049,0.0035,0.0076,0.0131,0.0195,0.0214,0.0301,0.0371,0.0443,0.0539,0.0575,0.0637,0.0656,0.061,0.0617,0.0627,0.0625,0.0649,0.0656,0.0673,0.0673,0.0673,0,-0.0349,-0.031,-0.0209,-0.0171,-0.0125,-0.0065,-0.002,0.0052,0.0097,0.0187,0.0217,0.0291,0.0354,0.0463,0.0535,0.0608,0.0629,0.0632,0.0641,0.062,0.0629,0.0625,0.0629,0.063,0.0629,0.0629,0.0628,0,-0.0348,-0.0317,-0.0255,-0.0181,-0.013,-0.0068,-0.0004,0.0023,0.0108,0.0154,0.0226,0.0274,0.037,0.0443,0.0524,0.0574,0.0615,0.0624,0.0632,0.0613,0.0585,0.06,0.0602,0.0624,0.0625,0.0625,0.0625,0.0625,-0.0358,-0.0322,-0.0245,-0.0179,-0.0124,-0.0067,-0.0024,0.0035,0.0095,0.0178,0.0217,0.0288,0.0364,0.0476,0.0525,0.0582,0.0594,0.0604,0.0607,0.0608,0.0603,0.0575,0.0597,0.0597,0.0597,0.0597,0.0598,0,-0.0355,-0.0303,-0.0243,-0.0157,-0.0105,-0.0073,-0.0002,0.004,0.0101,0.0168,0.0228,0.0309,0.0379,0.0454,0.0529,0.0559,0.058,0.0577,0.0575,0.0586,0.0589,0.0575,0.0559,0.0559,0.0559,0.0559,0.0559,0.0559,-0.0346,-0.0283,-0.0243,-0.0153,-0.0101,-0.0032,0.0006,0.0059,0.0112,0.0199,0.0257,0.0305,0.0375,0.0454,0.052,0.054,0.0565,0.0556,0.0582,0.0583,0.0586,0.0589,0.0576,0.056,0.056,0.0574,0.0574,0.0574]},{"header":{"parameterUnit":"m.s-1","parameterCategory":1,"la1":30.2991,"la2":30.254,"lo1":-89.0895,"lo2":-89.0444,"dy":0.0017,"dx":0.0017,"nx":28,"ny":28,"refTime":"2023-08-24T03:00:00:Z","depth":0,"parameterNumber":3,"parameterNumberName":"V-component_of_WINDS"},"data":[0,0,0,0,0,0,0,0,0,0,0,0,0,0,0,0,0,0,0,0,0,0,0,0,0,0,0,0,0,0,0,0,0,0,0,0,0,0,0,0,0,0,0,0,0,0,0,0,0,0,0,0,0,0,0,0,0,0,3.3236,3.3235,0,3.32,3.3199,3.3199,3.3223,3.3224,3.3225,3.3226,3.3182,3.318,3.3178,0,0,0,0,0,0,0,0,0,0,0,0,0,3.3318,3.3316,3.3236,3.3235,3.3235,3.32,3.3199,3.3199,3.3223,3.3224,3.3226,3.3227,3.3183,3.318,3.3177,0,0,0,0,0,0,0,0,0,0,0,0,0,3.3282,3.3316,3.3236,3.3243,3.3243,3.32,3.3199,3.3199,3.3223,3.3224,3.3226,3.3228,3.3184,3.318,3.3177,3.3123,0,0,3.3167,3.3165,0,0,0,0,0,0,0,0,3.3284,3.3279,3.3242,3.3242,3.3242,3.3218,3.3212,3.3173,3.3222,3.323,3.3226,3.3228,3.3192,3.3188,3.3177,3.3121,3.3119,3.3167,3.3165,3.3163,3.3162,0,0,0,0,0,0,0,3.3286,3.328,3.3221,3.3241,3.3242,3.3245,3.3242,3.3205,3.3202,3.3229,3.3231,3.3227,3.3192,3.3181,3.3177,3.3118,3.3167,3.3164,3.3162,3.316,3.3014,3.3012,0,0,0,0,0,0,3.3289,3.3282,3.3222,3.322,3.3268,3.3242,3.3239,3.3224,3.3202,3.3201,3.3226,3.3228,3.3185,3.318,3.3175,3.3109,3.3163,3.316,3.3158,3.3016,3.3014,3.3011,0,0,0,0,0,0,3.3291,3.3284,3.3224,3.3252,3.3244,3.3239,3.3222,3.3222,3.3211,3.32,3.3198,3.3215,3.3187,3.318,3.3136,3.3108,3.3158,3.3155,3.3018,3.3015,3.3012,3.2977,0,0,0,0,0,0,3.3293,3.3284,3.3265,3.3251,3.3243,3.3187,3.3221,3.322,3.3206,3.3209,3.3189,3.3187,3.3187,3.3141,3.3133,3.3104,3.3153,3.302,3.3017,3.3013,3.2981,3.2974,3.2968,0,0,0,0,0,3.3296,3.3255,3.3264,3.3256,3.3219,3.3186,3.3181,3.3184,3.3203,3.3183,3.3176,3.3188,3.3113,3.3136,3.3127,3.3097,3.3022,3.3018,3.3014,3.2984,3.2975,3.2968,0,0,0,0,0,0,3.3263,3.3253,3.3263,3.3217,3.3202,3.319,3.3164,3.3175,3.3152,3.3155,3.3159,3.3154,3.3108,3.3098,3.3124,3.3043,3.307,3.3064,3.3051,3.3042,3.3036,3.3038,3.315,0,0,0,0,0,3.3251,3.3226,3.3219,3.3178,3.3171,3.3169,3.3154,3.3159,3.3142,3.3135,3.3125,3.3107,3.3079,3.306,3.3034,3.2981,3.2975,3.2956,3.2949,3.2943,3.2937,3.2906,3.2897,3.2998,3.2998,3.2998,0,0,3.3224,3.3216,3.32,3.3172,3.3161,3.3133,3.3163,3.3133,3.3112,3.313,3.3088,3.308,3.306,3.301,3.2988,3.3001,3.2909,3.2938,3.2934,3.293,3.2901,3.2891,3.2883,3.2995,3.2995,3.2996,0,0,3.3161,3.3154,3.3119,3.3109,3.3093,3.3092,3.3084,3.307,3.3066,3.3025,3.3038,3.3011,3.2964,3.2949,3.2935,3.2868,3.2877,3.2859,3.2823,3.2793,3.2785,3.2778,3.2752,3.2743,3.2853,3.2853,3.2853,0,3.3129,3.3091,3.31,3.3069,3.3055,3.3073,3.3037,3.3025,3.3,3.2989,3.3005,3.2946,3.2934,3.2881,3.2864,3.2853,3.2842,3.286,3.2786,3.2779,3.2772,3.2747,3.2738,3.2851,3.2851,3.2851,3.2852,0,3.3052,3.3025,3.2999,3.2977,3.2961,3.2927,3.2928,3.291,3.2916,3.2913,3.287,3.2856,3.2827,3.2815,3.282,3.2762,3.2771,3.2786,3.2813,3.276,3.2737,3.2728,3.2848,3.2849,3.2849,3.285,0,0,3.2965,3.295,3.294,3.293,3.2915,3.2893,3.2859,3.2834,3.2817,3.28,3.277,3.2731,3.2745,3.2729,3.2732,3.2706,3.2652,3.2725,3.2724,3.271,3.2585,3.2572,3.2561,3.2659,3.2657,3.2656,3.2586,0,3.29,3.2845,3.2852,3.2797,3.2771,3.2789,3.2759,3.2745,3.2742,3.2717,3.2712,3.2683,3.2706,3.2696,3.2671,3.2664,3.2626,3.2669,3.2628,3.2627,3.2631,3.2549,3.2535,3.247,3.2577,3.2576,3.2575,0,3.2817,3.2799,3.2743,3.2731,3.272,3.2694,3.2671,3.2649,3.2632,3.2631,3.2614,3.2622,3.2586,3.2616,3.2565,3.2594,3.2577,3.2571,3.2569,3.2563,3.2596,3.2539,3.2449,3.2439,3.2561,3.2562,3.2563,0,3.2757,3.2719,3.268,3.2671,3.2657,3.2638,3.2631,3.2617,3.2601,3.258,3.2569,3.2544,3.2529,3.2508,3.2507,3.253,3.2455,3.2485,3.245,3.245,3.2432,3.2433,3.2336,3.2425,3.2426,3.2426,3.2426,0,3.2682,3.2647,3.2653,3.2629,3.2589,3.2597,3.2556,3.2551,3.2538,3.2511,3.2525,3.2499,3.2501,3.2474,3.2474,3.243,3.2424,3.242,3.242,3.2418,3.2418,3.2405,3.2409,3.2423,3.2424,3.2424,3.2425,0,3.2608,3.2611,3.2569,3.2561,3.2557,3.2528,3.2519,3.2495,3.2493,3.2459,3.2451,3.2448,3.2417,3.2415,3.2379,3.2379,3.2325,3.2331,3.2331,3.2332,3.2296,3.2299,3.2187,3.2171,3.2273,3.2272,3.2271,0,3.2559,3.2532,3.2521,3.2505,3.2498,3.2472,3.2457,3.2463,3.2446,3.2426,3.2404,3.2375,3.2352,3.2301,3.2293,3.2266,3.2269,3.2232,3.2265,3.2263,3.2266,3.2267,3.2263,3.2225,3.2224,3.2223,3.2222,0,3.2471,3.2474,3.2453,3.2432,3.2414,3.2397,3.2381,3.2367,3.2372,3.2351,3.2321,3.2304,3.2268,3.2238,3.2211,3.2201,3.2211,3.2212,3.2202,3.2198,3.2199,3.2196,3.2311,3.2214,3.2215,3.2215,3.2216,3.2216,3.2406,3.2383,3.2372,3.2347,3.2337,3.2322,3.2299,3.2296,3.2272,3.2245,3.225,3.2216,3.2199,3.2165,3.2152,3.2124,3.2137,3.2123,3.2119,3.2115,3.211,3.2206,3.2119,3.212,3.212,3.212,3.212,0,3.2318,3.2312,3.229,3.2269,3.2249,3.2264,3.2247,3.2229,3.22,3.2185,3.2163,3.2128,3.2099,3.209,3.2061,3.204,3.2044,3.2032,3.2033,3.203,3.2102,3.2112,3.203,3.203,3.203,3.203,3.203,3.203,3.2269,3.2231,3.2232,3.2188,3.2182,3.2151,3.214,3.2125,3.2114,3.2075,3.2052,3.2048,3.2034,3.2005,3.1979,3.1976,3.1964,3.195,3.1949,3.2016,3.2025,3.2033,3.2043,3.1948,3.1948,3.188,3.1879,3.1878]}]]